User: anonymous   Login
Location: Cañada de la Miga
(34.7595°N, 106.2317°W)
Time: 00:42:06
(UTC+00:00)
Language:

Vanguard 1 Rocket - Orbit

View from above orbital plane
View from above orbital plane
View from above satellite
View from above satellite

Ground track
Ground track

The orbit data is extracted from the following two-line orbital elements,

1 00016U 58002A   21331.28448319  .00000140  00000-0  17504-3 0  9996
2 00016  34.2767  70.6126 2028393 303.2492  38.9533 10.48784981514258
Epoch (UTC): 27 November 2021 06:49:39
Eccentricity: 0.2028393
inclination: 34.2767°
perigee height: 650 km
apogee height: 4226 km
right ascension of ascending node: 70.6126°
argument of perigee: 303.2492°
revolutions per day: 10.48784981
mean anomaly at epoch: 38.9533°
orbit number at epoch: 51425

The dashed part of the orbit path shows where the satellite is in the earth's shadow,  

DLR